sat.trackr.live / text

‹ back to catalog

JILIN-1 GAOFEN 03D49

NORAD 54694 · 2022-167N

PAYLOAD ACTIVE UNKNOWN

§ Identity

Operator
Country
PRC
Launch date
2022-12-09
Launch site
SEAL
Launch vehicle
Mass (kg)
RCS (m²)

External: N2YO · Heavens-Above · Gunter

§ Orbital elements

Epoch: 2026-05-25T05:19:18.928704Z

Period
93.70 min
Inclination
97.6794°
Eccentricity
0.0005217
Mean motion
15.36782072 rev/d
Perigee alt
452.1 km
Apogee alt
459.2 km
Semi-major
6,833.8 km
B*
3.3352e-4
RAAN
314.3169°
Arg perigee
204.9169°
Mean anomaly
155.1824°
Rev number
19,196

§ Raw data

JILIN-1 GAOFEN 03D491 54694U 22167N   26145.22174686  .00011910  00000+0  33352-3 0  99902 54694  97.6794 314.3169 0005217 204.9169 155.1824 15.36782072191968

JSON: /api/v1/satellites/54694 · /tle

For live sub-satellite position, see the globe view (requires WebGL).

§ Visibility from observer

Set your observer location to see the next 7 days of passes ≥ 10°. The values pass through the URL so the page stays shareable.

No JS? Fill the form by hand. The geolocation button needs JavaScript.